{"data":{"norad_id":52622,"epoch":"2026-05-25T03:25:02.605728Z","epoch_age_seconds":62615,"freshness":"FRESH","line1":"1 52622U 22052AA  26145.14239127  .00000249  00000+0  33774-4 0  9997","line2":"2 52622  53.2128 300.9103 0001626  88.1112 272.0066 15.08835430222323","mean_motion":15.0883543,"eccentricity":0.0001626,"inclination_deg":53.2128,"raan_deg":300.9103,"arg_perigee_deg":88.1112,"mean_anomaly_deg":272.0066,"bstar":3.3774e-5,"rev_number":22232,"period_min":95.437843741514,"perigee_km":538.63250803855,"apogee_km":540.88220728366,"semimajor_km":6917.8943576611,"source":"CELESTRAK","updated_at":"2026-05-25T13:38:17.201988Z"}}